Location: Góry Miechowskie
(50.3599°N, 20.1803°E)
Time: 06:54:36
(UTC+00:00)

A-11 Canister half - Pass Details

Date: 19 September 2024
Orbit: 1515 x 1684 km, 47.2° (Epoch: 05 October)

Event Time Altitude Azimuth Distance (km) Brightness Sun altitude
Rises 18:59:58 0° 265° (W) 4,714 12.4 -21.6°
Reaches altitude 10° 19:03:02 10° 264° (W) 3,714 11.7 -22.0°
Maximum altitude 19:12:20 75° 182° (S) 1,568 8.9 -23.3°
Enters shadow 19:16:34 37° 106° (ESE) 2,199 9.3 -23.8°
Drops below altitude 10° 19:21:32 10° 99° (E) 3,678 - -24.5°
Sets 19:24:34 0° 98° (E) 4,667 - -24.9°
